Location: Saint Louis
(38.6272°N, 90.1978°W)
Time: 02:46:40
(UTC-06:00)

Hubble Space Telescope - Visible Passes

Search period start: 10 February 2016 00:00
Search period end: 20 February 2016 00:00
Orbit: 540 x 544 km, 28.5° (Epoch: 09 February)

Date Brightness Start Highest point End Pass type
(mag) Time Alt. Az. Time Alt. Az. Time Alt. Az.
11 Feb 3.1 19:06:47 10° S 19:08:28 12° SSE 19:08:46 12° SSE visible
12 Feb 2.9 18:56:42 10° SSW 18:58:54 14° SSE 18:59:59 13° SSE visible
13 Feb 2.9 18:46:49 10° SSW 18:49:21 16° SSE 18:51:11 12° SE visible
14 Feb 2.8 18:37:02 10° SSW 18:39:49 17° S 18:42:22 11° SE visible
14 Feb 3.7 20:17:26 10° SW 20:17:47 11° SW 20:17:47 11° SW visible
15 Feb 2.8 18:27:20 10° SW 18:30:16 19° S 18:33:12 10° SE visible
15 Feb 3.4 20:08:00 10° SW 20:08:57 14° SW 20:08:57 14° SW visible
16 Feb 2.8 18:17:42 10° SW 18:20:43 19° S 18:23:44 10° SE visible
16 Feb 3.2 19:58:37 10° SW 20:00:08 15° SSW 20:00:08 15° SSW visible
17 Feb 2.8 18:08:07 10° SW 18:11:10 20° S 18:14:14 10° SE visible
17 Feb 3.1 19:49:17 10° SW 19:51:20 15° SSW 19:51:20 15° SSW visible
18 Feb 3.2 19:40:05 10° SW 19:42:14 14° SSW 19:42:35 14° S visible
19 Feb 3.3 19:31:05 10° SW 19:32:40 12° SSW 19:33:52 11° S visible
